Flag for U.S.A. Weather past 2 weeks in Torrance, California, U.S.A.

Now
65 °F

Overcast.


Feels Like: 65 °F
Forecast: 63 / 70 °F
Wind: 5 mph from West

Location: Hawthorne Municipal Airport

Current Time: Jul 4, 2015 at 1:57:06 AM

Latest Report: Jul 4, 2015 at 12:53 AM


Visibility: 10 mi

Pressure: 29.89 "Hg

Humidity: 81%

Dew point: 59 °F

Location of TorranceLocation

Historic Weather in Torrance — Graph

°F

Torrance temperature yesterday

Maximum temperature yesterday: 75 °F (at 11:53 AM)
Minimum temperature yesterday: 65 °F (at 1:53 AM)
Average temperature yesterday: 68 °F

Past Weeks' High & Low Weather Summary

 TemperatureHumidityPressure
High86 °F (Jun 30, 7:53 PM)96% (Jun 19, 2:53 AM)30.04 "Hg (Jun 19, 2:53 AM)
Low60 °F (Jun 19, 2:53 AM)30% (Jun 30, 7:53 PM)29.78 "Hg (Jun 30, 7:53 PM)
Average70 °F71%29.91 "Hg
* Reported Jun 19 12:53 AM — Jul 4 12:53 AM, Torrance, Weather by CustomWeather, © 2015

Note: Actual official high and low records may vary slightly from our data, if they occured in-between our weather recording intervals... More about our weather records

Advertising

Torrance weather history for previous 24 hours

 ConditionsComfort  
Time TempWeatherWind HumidityBarometerVisibility
12:53 AM
Sat, Jul 4
65 °FOvercast.5 mph81%29.89 "Hg10 mi
11:53 PM
Fri, Jul 3
65 °FOvercast.8 mph81%29.89 "Hg10 mi
10:53 PM65 °FPassing clouds.8 mph85%29.89 "Hg10 mi
9:53 PM65 °FLow clouds.8 mph85%29.88 "Hg10 mi
8:53 PM65 °FLow clouds.9 mph87%29.85 "Hg10 mi
8:01 PM66 °FPassing clouds.12 mph81%29.85 "Hg10 mi
6:53 PM70 °FSunny.12 mph71%29.84 "Hg10 mi
5:53 PM71 °FSunny.12 mph68%29.85 "Hg10 mi
4:53 PM73 °FSunny.14 mph66%29.86 "Hg10 mi
3:53 PM74 °FSunny.9 mph64%29.87 "Hg10 mi
2:53 PM74 °FSunny.15 mph62%29.90 "Hg10 mi
1:53 PM73 °FSunny.13 mph66%29.92 "Hg10 mi
12:53 PM74 °FSunny.8 mph64%29.93 "Hg10 mi
11:53 AM75 °FSunny.9 mph62%29.96 "Hg10 mi
10:53 AM72 °FPassing clouds.7 mph68%29.97 "Hg10 mi
9:53 AM69 °FOvercast.6 mph76%29.98 "Hg10 mi
8:53 AM68 °FOvercast.7 mph78%29.98 "Hg9 mi
7:53 AM67 °FPartly sunny.No wind81%29.96 "Hg9 mi
6:53 AM66 °FOvercast.5 mph84%29.96 "Hg10 mi
5:53 AM65 °FLow clouds.6 mph87%29.96 "Hg10 mi
4:53 AM65 °FLow clouds.3 mph87%29.94 "Hg10 mi
3:53 AM65 °FLow clouds.7 mph85%29.94 "Hg10 mi
2:53 AM65 °FLow clouds.6 mph87%29.94 "Hg10 mi
1:53 AM65 °FLow clouds.7 mph87%29.94 "Hg10 mi
Weather by CustomWeather, © 2015

See weather overviewHow to use our weather pages